Location: Gerlach
(40.6516°N, 119.3568°W)
Time: 08:12:39
(UTC-07:00)

ZACube-1 - Visible Passes

Search period start: 13 July 2025 00:00
Search period end: 23 July 2025 00:00
Orbit: 547 x 606 km, 97.8° (Epoch: 13 July)

Date Brightness Start Highest point End Pass type
(mag) Time Alt. Az. Time Alt. Az. Time Alt. Az.
13 Jul ? 03:27:56 10° NNE 03:31:56 39° E 03:34:32 19° SSE visible
13 Jul ? 05:03:57 10° NNW 05:06:52 18° WNW 05:09:46 10° WSW visible
14 Jul ? 03:31:42 10° NNE 03:35:47 43° E 03:38:21 20° SSE visible
15 Jul ? 03:35:29 10° NNE 03:39:37 47° E 03:42:10 21° SSE visible
16 Jul ? 03:39:16 10° NNE 03:43:27 53° E 03:45:58 22° S visible
17 Jul ? 03:43:03 10° NNE 03:47:15 58° E 03:49:46 23° S visible
18 Jul ? 03:46:49 10° NNE 03:51:04 65° E 03:53:33 23° S visible
19 Jul ? 03:50:36 10° NNE 03:54:51 72° E 03:57:20 24° S visible
20 Jul ? 03:54:23 10° NNE 03:58:39 80° ESE 04:01:06 24° S visible
21 Jul ? 03:58:10 10° NNE 04:02:25 88° E 04:04:52 24° SSW visible
22 Jul ? 04:01:57 10° N 04:06:11 84° WNW 04:08:37 25° SSW visible
